Weather in Pochaev

Ukraine / Ternopil District     50°00′09″N   25°30′32″E
temp.,
°C
wind,
m/s
gust,
m/s
humid.,
%
clouds,
%
prec.,
mm/h
press.,
hPa
HPBL,
m
27 october, wed
wed2700:00+5sw345388 0.0 102451
03:00+4wsw3562100 0.0 102465
06:00+4w3106696 0.0 1025202
09:00+5w41069100 0.0 1026246
12:00+10wnw47657 0.0 1026429
15:00+13wnw5753100 0.0 10251258
18:00+9w3473100 0.0 102544
21:00+7wsw338265 0.0 102638
28 october, thu
thu2800:00+7wsw3481100 0.0 102655
03:00+6wsw3782100 0.0 1026125
06:00+6wsw388089 0.0 1026148
09:00+6w31077100 0.0 1027224
12:00+12wnw586060 0.0 1026411
15:00+14wnw5760100 0.0 1025594
18:00+11wnw227762 0.0 102520
21:00+9nw128649 0.0 102710
29 october, fri
fri2900:00+8wnw00886 0.0 102710
03:00+8sse11905 0.0 102710
06:00+7se229252 0.0 102725
09:00+7se369323 0.0 1027109
12:00+13se57699 0.0 1026538
15:00+16se676048 0.0 1025929
18:00+12se497411 0.0 1024185
21:00+11se613805 0.0 1024360
30 october, sat
sat3000:00+10se615850 0.0 1025403
03:00+9sse616875 0.0 1024395
06:00+8sse716895 0.0 1024398
09:00+8sse616865 0.0 1024433
12:00+13s810625 0.0 1024583
15:00+16s67515 0.0 1023714
18:00+13sse510605 0.0 1023250
21:00+11sse614665 0.0 1024332
31 october, sun
sun3100:00+9sse613744 0.0 1024299
03:00+8sse613760 0.0 1023309
05:00+7sse714860 0.0 1022320
08:00+7sse715895 0.0 1022401
11:00+12sse913600 0.0 1020573
14:00+15sse813451 0.0 1018793
17:00+12sse815525 0.0 1017537
20:00+10sse715594 0.0 1017406